www.pogodaiklimat.ru

Погода и климат >> Архив погоды >> Аргентина >> Росарио


ПОГОДА в Росарио

  • Прогноз погоды в Росарио
  • Монитор погоды в Росарио

АРХИВ ПОГОДЫ в Росарио

Время (UTC), дата Ветер
(напр.,м/с)
 
Видим.   Явления Облачность Т
(С)
Тd
(С)
f
(%)
Тe
(С)
Тes
(С)
Комфортность P
(гПа)
Po
(гПа)
Тmin
(С)
Tmax
(С)
R
(мм)
R24
(мм)
S
(см)
03 14.07 СВ 2 6000 м местами туман поземный туман 3/0
[Ac As]
+7.1 +6.0 93 +5 +5 1020.0 1016.9
06 14.07 ЮВ 2 3000 м дымка {туман} 1/0
[Ac As]
+4.1 +3.6 97 +2 +2 1019.9 1016.8
09 14.07 З 1 2500 м местами туман поземный туман ясно +2.6 +2.1 97 +1 +1 1019.3 1016.2
12 14.07 Ю 2 200 м туман ясно +2.8 +2.3 97 -1 0 1020.0 1016.9 +0.9 +9.4
15 14.07 В 4 11 км {туман} 4/0
[Ac cast]
+11.9 +9.1 83 +10 +13 1019.7 1016.6
18 14.07 В 4 12 км {туман} 6/0
[Ac cast]
+14.0 +4.9 54 +13 +15 1018.0 1014.9
21 14.07 СВ 2 15 км 8/0
[Ac cast]
+11.8 +7.7 76 +11 +11 1017.6 1014.5
00 15.07 Ю 2 9000 м дымка 6/0
[Ac cast Ci sp]
+10.2 +7.1 81 +9 +9 1018.9 1015.8 +2.7 +15.7
03 15.07 Ю 3 8000 м дымка 4/0
[Ac As]
+7.5 +6.6 94 +5 +5 1019.6 1016.5
06 15.07 Ю 1 5000 м местами туман поземный туман 1/0
[Ac cast]
+5.4 +5.4 100 +4 +4 1019.8 1016.8
09 15.07 СЗ 1 4000 м местами туман поземный туман 3/0
[Ac und]
+2.9 +2.7 99 +1 +1 1019.6 1016.5
12 15.07 Ю 2 300 м туман ясно +3.8 +3.6 99 +1 +1 1022.4 1019.3 +2.3 +10.6
15 15.07 Ю 3 8000 м дымка {туман} ясно +11.8 +9.2 84 +10 +16 1023.1 1020.0
18 15.07 Ю 5 12 км {туман} 4/0
[Ci fib]
+17.8 +2.7 36 +17 +20 1021.5 1018.4
21 15.07 Ю 4 12 км 4/0
[Ci sp]
+15.4 0.0 35 +15 +15 1022.0 1018.9
00 16.07 СЗ 1 12 км ясно +8.3 +2.4 66 +8 +8 1024.0 1020.9 +3.8 +18.3
03 16.07 ЮВ 1 12 км ясно +3.7 +1.1 83 +2 +2 1024.4 1021.3
06 16.07 З 2 12 км ясно +2.3 -0.4 82 -0 -0 1024.3 1021.2
09 16.07 В 1 12 км ясно +1.3 -0.9 85 -1 -1 1023.9 1020.8
12 16.07 Ю 1 12 км ясно +2.1 -0.7 82 0 +1 1024.2 1021.2 -1.0 +8.3
15 16.07 С 5 12 км ясно +14.9 +5.8 54 +14 +17 1024.6 1021.6
18 16.07 С 5 15 км ясно +16.7 +4.0 43 +16 +19 1022.2 1019.2
21 16.07 СВ 2 15 км ясно +14.8 +6.2 56 +15 +15 1021.4 1018.4
00 17.07 СВ 3 12 км ясно +10.4 +7.1 80 +9 +9 1022.0 1018.9 +2.1 +17.1
03 17.07 СВ 4 15 км ясно +10.2 +4.7 69 +8 +8 1022.7 1019.7
06 17.07 С 3 15 км ясно +9.0 +5.3 78 +7 +7 1022.7 1019.7
09 17.07 С 3 15 км 3/0
[Ci sp]
+9.5 +5.1 74 +7 +7 1021.6 1018.6
12 17.07 С 5 15 км 8/0
[Ac cast]
+10.8 +3.9 62 +8 +8 1022.3 1019.2 +8.2 +11.1
15 17.07 С 7 15 км 4/0
[Ci fib]
+16.4 +3.8 43 +15 +17 1021.7 1018.8
18 17.07 С 7 15 км 5/0
[Ci sp]
+18.8 +6.3 44 +19 +20 1018.4 1015.4
21 17.07 С 5 15 км 8/0
[Ci sp]
+16.6 +5.2 47 +16 +16 1016.7 1013.7
00 18.07 С 4 15 км 9/0
[Ci sp]
+13.2 +6.1 62 +12 +12 1016.5 1013.6 +10.5 +18.8
03 18.07 С 3 15 км 8/0
[Cs]
+11.2 +7.1 76 +9 +9 1016.5 1013.6
06 18.07 С 5 15 км 10/0
[Ci]
+12.1 +6.7 70 +10 +10 1015.3 1012.2
09 18.07 В 2 15 км 6/0
[Ci]
+8.8 +6.4 85 +7 +7 1017.0 1014.0
12 18.07 СВ 3 9000 м дымка 8/0
[Ac trans Ci sp]
+8.8 +8.2 96 +6 +6 1019.0 1016.0 +6.9 +13.6
15 18.07 В 3 11 км 10/0
[Ac cast]
+14.5 +9.5 72 +14 +16 1020.6 1017.6
18 18.07 В 3 9000 м мгла 9/0
[Ac cast Ci sp]
+16.2 +10.4 68 +16 +18 1019.3 1016.4
21 18.07 В 2 9000 м дымка 10/0
[Ac As Ci sp]
+15.0 +10.5 74 +15 +15 1019.7 1016.8
00 19.07 Ю 6 15 км 9/0
[Ac As Ci sp]
+12.6 +8.4 76 +10 +10 1021.5 1018.4 +8.8 +16.7
03 19.07 Ю 2 15 км 10/0
[Ac As]
+12.3 +8.7 79 +12 +12 1022.1 1019.2
06 19.07 ЮВ 2 15 км 9/0
[Ac As]
+11.9 +7.6 75 +11 +11 1020.5 1017.6
09 19.07 Ю 2 15 км 3/0
[Ci fib]
+6.9 +6.0 94 +4 +4 1018.8 1015.7
12 19.07 Ю 2 6000 м дымка 9/0
[Ci]
+6.0 +5.6 97 +3 +4 1019.2 1016.1 +4.8 +12.6
15 19.07 СВ 4 6000 м дымка 9/0
[Ci sp]
+14.2 +11.6 84 +13 +17 1018.3 1015.3
18 19.07 СВ 2 7000 м мгла 10/0
[Ci sp]
+16.7 +10.6 67 +17 +22 1015.5 1012.5
21 19.07 С 3 9000 м дымка 10/0
[Ci sp]
+17.4 +12.2 72 +17 +17 1013.4 1010.4
00 20.07 СВ 2 900 м туман ясно +11.1 +10.3 95 +10 +10 1013.8 1010.6 +6.0 +19.3
03 20.07 В 2 1100 м местами туман поземный туман ясно +8.6 +8.2 97 +7 +7 1013.9 1010.9
06 20.07 штиль 0 1200 м местами туман поземный туман 8/8 360 м
[St]
+8.9 +8.7 99 +8 +8 1013.7 1010.6
09 20.07 В 2 5000 м в посл. час туман туман 10/10 450 м
[St]
+13.4 +12.9 97 +13 +13 1012.7 1009.7
12 20.07 СВ 3 9000 м дымка {туман} 10/10 540 м
[St]
+14.5 +14.0 97 +14 +14 1012.2 1009.2 +7.5 +14.7
15 20.07 С 5 9000 м дымка 9/4 660 м
[Sc Ac As Ci sp]
+18.3 +14.5 79 +18 +20 1011.1 1008.1
18 20.07 С 7 12 км 9/6 700 м
[Sc Ci sp]
+23.2 +17.1 69 +28 +29 душно 1006.5 1003.4

 

Местоположение метеостанции Росарио (Аргентина): широта -32.91 долгота -60.78 высота над уровнем моря 25 м.

В архиве по умолчанию представлена погода в Росарио за последнюю неделю. Архивные данные за месяц целиком и за предыдущие месяцы, начиная с января 2011 года, Вы можете получить, выбрав интересующий диапазон дат из раскрывающегося списка и нажав кнопку "Ввод!".


*Определитесь, кто Вы:
робот инопланетянин человек

Внимание! Время в таблицах - всемирное. Для получения местного времени необходимо прибавить поправку, которая равна -3 ч.

Смотрите также архив погоды в соседних городах и на ближайших метеорологических станциях:

Погода в Паране (Аргентина) (129 км)
Погода в Маркос Хуарес (Аргентина) (130 км)
Погода в Санта-Фе (Аргентина) (135 км)
Погода в Хунине (Аргентина) (183 км)
Погода в Гуалегуайчу (Аргентина) (203 км)
Погода в Мерседесе (Уругвай) (256 км)
Погода в Пайсанду (Уругвай) (266 км)
Погода в Лабоулайе (Аргентина) (275 км)
Погода в Буэнос-Айресе (Аргентина) (282 км)
Погода в Буэнос-Айресе аэропорт (Аргентина) (286 км)

Пояснения к столбцам:

Ветер - указаны скорость ветра в м/с - средняя за 10 мин, порывы в срок и между сроками (в фигурных скобках) и направление, откуда дует ветер: С - северный, СВ - северо-восточный, В - восточный, ЮВ - юго-восточный, Ю - южный, ЮЗ - юго-западный, З - западный, СЗ - северо-западный.
Видимость - горизонтальная дальность видимости в метрах или километрах. При видимости от 1 до 10 км при отсутствии осадков обычно наблюдается дымка, при ухудшении видимости до 1 км и менее - туман. В сухую погоду видимость может ухудшаться дымом, пылью или мглою.
Явления - указаны атмосферные явления, наблюдавшиеся в срок или в последний час перед сроком; фигурными скобками обозначены явления, наблюдавшиеся между сроками (за 1-3 часа до срока); квадратными скобками обозначены град или гололедные отложения с указанием их диаметра в мм.
Облачность - указаны через наклонную черту общая и нижняя облачность в баллах и высота нижней границы облаков в метрах; квадратными скобками обозначены формы облаков: Ci - перистые, Cs - перисто-слоистые, Cc - перисто-кучевые, Ac - высококучевые, As - высокослоистые, Sc - слоисто-кучевые, Ns - слоисто-дождевые, Cu - кучевые, Cb - кучево-дождевые. Подробнее классификацию облаков см. в Атласе облаков (PDF).
T - Температура воздуха - температура, измеренная на высоте 2 м над землей.
Td - Температура точки росы - температура, при понижении до которой содержащийся в воздухе водяной пар достигнет насыщения.
f - Относительная влажность воздуха - влажноcть воздуха, измеренная на высоте 2 м над землей.
Te - Эффективная температура - температура, которую ощущает одетый по сезону человек в тени. Характеристика душности погоды. При расчете учитывается влияние влажности воздуха и скорости ветра на теплоощущения человека.
Tes - Эффективная температура на солнце - температура, которую ощущает человек, с поправкой на солнечный нагрев. Характеристика знойности погоды. Зависит от высоты солнца над горизонтом, облачности и скорости ветра. Ночью, в пасмурную погоду, а также при ветре 12 м/с и более поправка равна нулю.
P - Атмосферное давление - приведенное к уровню моря атмосферное давление.
Po - Атмосферное давление - измеренное на уровне метеостанции атмосферное давление.
Tmin - Минимальная температура - минимум температуры воздуха на высоте 2 м над землей.
Tmax - Максимальная температура - максимум температуры воздуха на высоте 2 м над землей.
R - Количество осадков - Количество выпавших осадков за период времени, мм. При наведении курсора мыши на число - период времени, за который выпало указанное количество осадков.
R24 - Количество осадков - Количество выпавших осадков за 24 часа, мм.
S - Снежный покров - Высота снежного покрова, см. При наведении курсора мыши на число - состояние снежного покрова и степень покрытия местности в баллах.